Regional Weather Roundup
Issued by NWS Cleveland, OH

Home | Current Version | Previous Version | Graphics & Text | Print | Product List | Glossary On
Versions: 1 2 3 4 5 6 7 8 9 10 11 12 13 14 15 16 17 18 19 20 21 22 23 24 25 26 27 28 29 30 31 32 33 34 35 36 37 38 39 40 41 42 43 44 45 46 47 48 49 50
000
ASUS41 KCLE 240502
RWRCLE
OHIO REGIONAL WEATHER ROUNDUP
NATIONAL WEATHER SERVICE CLEVELAND, OH
100 AM EDT SUN MAY 24 2015

NOTE: "FAIR" INDICATES FEW OR NO CLOUDS BELOW 12,000 FEET WITH NO
SIGNIFICANT WEATHER AND/OR OBSTRUCTIONS TO VISIBILITY.

OHZ001>008-015>018-024>027-034-035-043-044-240600-
   NORTHWEST OHIO

CITY           SKY/WX    TMP DP  RH WIND       PRES   REMARKS
DEFIANCE       CLEAR     58  51  78 CALM      30.26S
FINDLAY        CLEAR     62  46  55 SE6       30.27S
TOLEDO EXPRESS CLEAR     55  43  63 CALM      30.26F
TOLEDO EXEC    CLEAR     59  41  51 SE6       30.28S
LIMA           FAIR      59  46  62 S6        30.28S
$$

OHZ009>014-019>023-028>033-038-089-240600-
   NORTHEAST OHIO

CITY           SKY/WX    TMP DP  RH WIND       PRES   REMARKS
CLE-HOPKINS    CLEAR     53  42  66 CALM      30.32S
CLE-LAKEFRONT  CLEAR     63  39  41 SE10      30.29S
CUY CO. ARPT   NOT AVBL
LORAIN-ELYRIA  CLEAR     56  40  55 CALM      30.30S
ASHTABULA      CLEAR     48  41  76 CALM      30.33S
AKRON-CANTON   CLEAR     59  39  47 S5        30.32S
WOOSTER        CLEAR     52  40  63 CALM      30.32S
MANSFIELD      CLEAR     58  41  53 SE8       30.31S
YOUNGSTOWN     PTCLDY    56  37  49 S6        30.32F
$$

OHZ042-051>053-060>062-070>072-077>081-240600-
  SOUTHWEST OHIO

CITY           SKY/WX    TMP DP  RH WIND       PRES   REMARKS
CINC-COVINGTON PTCLDY    63  46  54 SE5       30.28S
CINC-LUNKEN    PTCLDY    54  50  86 CALM      30.29S
HAMILTON       PTCLDY    54  48  80 E3        30.28F
DAYTON         PTCLDY    66  45  46 S7        30.29F
WRIGHT-PAT AFB PTCLDY    57  48  72 CALM      30.29S
DAYTON GENERAL PTCLDY    62  45  53 SE6       30.28F
WILMINGTON     PTCLDY    61  44  53 SE5       30.30F
$$

OHZ036-037-039>041-045>050-054>059-063>069-073>076-082>088-240600-
  CENTRAL AND SOUTHEAST OHIO

CITY           SKY/WX    TMP DP  RH WIND       PRES   REMARKS
COLUMBUS       PTCLDY    60  43  53 E3        30.30S
OSU AIRPORT    PTCLDY    63  42  46 SE6       30.30S
BOLTON FIELD   NOT AVBL
RICKENBACK AFB CLEAR     60  44  55 CALM      30.29F
NEWARK         CLEAR     51  47  86 CALM      30.31S
MARION         CLEAR     59  42  53 S8        30.30S
LANCASTER      CLEAR     53  49  86 CALM      30.31F
ZANESVILLE     CLEAR     52  44  74 CALM      30.31F
NEW PHILLY     CLEAR     52  44  74 E3        30.33S
$$


USA.gov is the U.S. government's official web portal to all federal, state and local government web resources and services.